Regional Weather Roundup
Issued by NWS

Home | Current Version | Previous Version | Graphics & Text | Print | Product List | Glossary On
Versions: 1 2 3 4 5 6 7 8 9 10 11 12 13 14 15 16 17 18 19 20 21 22 23 24 25 26 27 28 29 30 31 32 33 34 35 36 37 38 39 40 41 42 43 44 45 46 47 48 49 50
000
ASUS44 KMEG 211400
RWRTN
TENNESSEE HOURLY STATE WEATHER ROUNDUP
NATIONAL WEATHER SERVICE MEMPHIS TN
900 AM CDT MON AUG 21 2017

TNZ002-004-019-021-049-052-054-088>092-211500-
WEST TENNESSEE

CITY           SKY/WX    TMP DP  RH WIND       PRES   REMARKS
MEMPHIS INTL   MOSUNNY   87  76  69 CALM      30.14S HX  97
NWS MEMPHIS      N/A     83 N/A N/A MISG        N/A
JACKSON        PTSUNNY   81  77  88 CALM      30.16R
DYERSBURG      SUNNY     82  76  81 S3        30.16R
$$

TNZ008-025-027-028-033-062-065-066-211500-
NORTH MIDDLE TENNESSEE

CITY           SKY/WX    TMP DP  RH WIND       PRES   REMARKS
NASHVILLE      MOSUNNY   82  71  69 S3        30.19R
CLARKSVILLE    SUNNY     79  70  74 CALM      30.17S
SMYRNA         MOSUNNY   80  72  76 E5        30.20S
CROSSVILLE     SUNNY     79  68  69 SE3       30.27S
$$

TNZ061-075-076-078-094-096-097-211500-
SOUTH MIDDLE TENNESSEE

CITY           SKY/WX    TMP DP  RH WIND       PRES   REMARKS
$$

TNZ017-018-042-046-047-211500-
NORTHEAST TENNESSEE

CITY           SKY/WX    TMP DP  RH WIND       PRES   REMARKS
TRI CITIES     MOSUNNY   77  70  79 NE3       30.27S
$$

TNZ012-013-036-069-073-074-211500-
CENTRAL EAST TENNESSEE

CITY           SKY/WX    TMP DP  RH WIND       PRES   REMARKS
KNOXVILLE      MOSUNNY   79  68  69 CALM      30.23R
OAK RIDGE      MOSUNNY   77  70  79 E5        30.25S
GATLINBURG     SUNNY     79  66  65 E3        30.24R
$$

TNZ083-085-099-211500-
SOUTHEAST TENNESSEE

CITY           SKY/WX    TMP DP  RH WIND       PRES   REMARKS
CHATTANOOGA    MOSUNNY   81  71  71 N3        30.22R
$$

SKY/WX REPORTED AS FAIR MEANS FEW OR NO CLOUDS BELOW
12 THOUSAND FEET.





USA.gov is the U.S. government's official web portal to all federal, state and local government web resources and services.